Theta_e
345 347 350 355 355 356 355 355 355 354 354 354 353 353 353 353 353 351 350 351 351 350 350 349 348 348 347 346 346 347 348 350 350 349 348 351 352 351 351 350 350 349 348 347 348 348 348 348 349 348 349 349 349 348 349 348 348 348 348 348 348 348 347 347 348 347 346 346 346 346 347 347 347 346 344 343 343 342 342 342 342 341 341 340 341
344 349 350 353 355 355 355 355 355 354 354 354 353 353 353 353 353 351 350 351 351 350 350 349 348 347 346 345 345 344 347 347 348 348 348 351 351 351 350 348 348 348 348 347 347 347 347 347 348 348 349 349 348 348 349 349 349 348 348 348 348 348 348 348 348 348 348 348 348 347 347 347 347 347 346 345 344 343 342 342 342 340 340 341 341
346 349 349 351 355 355 355 355 355 354 353 353 353 353 353 353 353 352 351 352 351 350 349 348 347 346 344 344 344 343 346 346 348 347 346 350 351 350 349 348 348 347 347 347 346 347 347 348 349 349 349 349 349 350 349 349 350 350 349 349 349 348 347 347 347 347 347 348 347 347 346 346 346 346 345 345 345 345 344 344 343 342 339 341 341
347 349 350 352 356 355 355 354 354 354 353 353 353 353 353 353 353 351 352 351 350 350 350 348 347 346 346 345 344 344 344 344 345 344 345 348 350 349 347 347 347 347 347 347 346 348 348 348 348 349 349 350 350 350 350 350 350 351 350 350 350 349 349 348 347 346 346 346 348 347 347 344 344 344 344 345 344 344 343 343 343 342 342 342 341
347 349 349 350 352 354 355 354 354 353 353 353 353 353 353 353 352 351 351 351 351 350 350 348 346 346 345 344 344 344 344 344 344 344 344 347 350 347 347 348 348 347 347 347 347 348 347 348 349 349 350 350 350 350 350 350 350 350 350 349 348 349 349 349 349 347 346 346 346 344 342 343 343 344 344 344 344 343 344 343 343 343 342 342 342
347 349 349 350 352 353 355 354 353 353 352 353 353 353 353 353 351 350 351 352 351 350 349 348 346 345 344 343 343 343 343 343 343 344 344 349 350 348 349 348 347 346 347 347 348 347 347 349 349 349 350 350 350 350 350 349 350 349 349 348 348 348 349 349 350 348 346 346 347 342 341 343 344 343 345 345 345 344 344 343 342 342 342 342 342
347 348 349 350 351 353 355 354 353 352 352 353 353 353 353 353 352 350 351 350 351 351 350 348 347 346 345 344 343 343 344 344 343 344 344 347 351 349 347 346 346 346 346 347 348 348 347 348 348 349 349 349 350 350 349 350 349 349 349 349 349 349 349 350 350 350 346 346 341 339 340 343 344 344 346 346 346 345 344 343 343 342 342 342 342
347 348 349 350 351 353 354 353 352 352 352 353 352 353 353 353 352 351 352 352 352 351 351 349 347 346 347 346 344 344 344 344 344 344 344 344 349 349 345 345 345 346 346 347 347 348 348 348 348 349 349 350 349 349 349 350 349 349 348 349 350 350 352 351 351 351 350 343 340 338 340 342 344 344 347 346 346 346 345 344 344 343 342 342 341
345 348 349 350 350 354 353 353 352 352 352 353 353 353 353 353 351 350 351 352 352 351 351 349 347 347 346 346 345 345 345 344 344 345 345 348 348 351 346 345 345 346 346 346 347 347 347 347 348 348 349 349 349 349 349 349 349 347 349 350 351 351 350 351 352 352 346 340 337 338 340 343 344 344 345 346 346 345 344 344 343 343 343 342 342
346 348 349 349 349 353 353 353 352 352 352 353 353 353 353 353 352 350 351 351 351 352 351 350 347 347 347 346 345 344 344 344 345 346 350 351 351 348 346 346 346 346 346 346 346 347 346 347 348 349 349 349 349 349 349 349 348 347 349 351 350 349 349 350 350 345 338 336 337 339 344 346 343 344 345 345 345 345 345 344 343 342 342 342 342
345 347 348 347 348 353 352 352 352 352 352 353 353 353 353 353 352 351 352 352 352 352 351 351 349 348 347 346 345 345 345 345 346 348 349 350 350 348 347 346 346 346 347 346 347 345 346 347 348 349 349 349 349 349 349 347 347 349 349 351 350 347 348 346 342 336 335 337 339 342 346 347 343 345 346 346 346 346 345 345 344 343 343 343 342
346 347 348 347 352 353 353 352 352 352 352 353 352 353 353 353 352 351 352 352 352 352 351 351 349 348 348 348 348 348 346 346 347 348 349 349 348 348 347 346 346 346 346 346 346 345 346 348 348 348 348 349 349 348 348 346 348 349 349 350 350 346 345 341 333 334 335 336 340 344 343 343 343 346 345 346 347 345 345 345 344 343 343 343 343
345 347 347 347 349 353 352 352 352 352 352 353 353 352 353 352 352 352 352 351 351 351 351 351 348 347 347 347 348 348 347 347 346 347 346 348 348 348 348 347 346 346 346 347 346 346 347 347 348 348 348 348 348 348 347 347 348 348 350 351 349 346 343 340 335 337 339 341 342 341 341 342 345 346 345 344 347 346 345 345 344 343 344 343 343
343 346 347 348 349 352 352 352 352 352 353 352 353 352 352 352 352 352 352 352 351 351 351 350 348 347 347 346 347 347 347 347 347 346 346 347 347 348 348 347 347 347 346 347 347 347 347 348 348 348 348 348 347 347 347 347 348 347 349 350 347 345 344 342 340 338 340 341 343 341 341 343 344 346 344 345 345 345 344 344 344 343 342 341 342
344 345 347 349 349 349 352 352 352 352 352 352 352 353 353 352 352 352 352 351 351 351 350 349 348 348 347 346 346 346 346 346 346 346 346 346 347 347 347 347 347 346 346 346 347 347 347 348 348 348 347 347 347 347 345 347 347 347 348 349 346 344 341 335 336 337 339 341 343 342 342 345 348 346 345 346 346 346 345 344 343 343 343 343 342
345 346 348 347 347 349 349 352 352 353 352 353 352 353 353 352 352 352 351 351 351 350 350 350 349 348 347 346 346 345 345 346 345 346 346 346 346 346 346 346 346 346 347 346 346 347 347 347 347 347 346 346 346 345 346 346 346 347 348 347 347 345 344 340 339 339 339 341 342 343 342 346 348 347 346 346 346 345 345 344 343 343 342 341 341
345 347 346 345 346 347 347 350 351 353 352 352 352 352 352 352 352 351 351 351 350 350 349 349 349 348 347 345 344 343 344 345 344 344 344 345 346 346 346 345 346 346 346 346 346 346 347 346 346 345 345 346 345 346 346 346 346 347 347 347 347 347 346 344 342 342 344 345 343 342 344 346 347 346 347 345 344 345 343 344 345 344 343 343 342
344 346 344 344 346 347 347 348 350 350 350 350 352 352 352 352 351 351 351 350 350 350 349 349 349 347 346 345 344 343 343 343 343 343 342 344 346 345 345 344 345 345 345 345 345 346 346 345 345 345 345 345 346 347 345 345 346 347 347 347 348 348 347 345 343 344 345 346 343 345 345 346 348 346 347 346 345 344 344 344 345 344 342 342 342
344 344 344 343 344 345 346 347 349 348 348 347 348 350 352 352 351 351 350 350 350 349 349 349 348 346 345 344 343 343 342 342 342 342 342 345 345 344 344 343 343 343 344 345 345 345 345 345 345 344 345 346 346 347 345 345 345 347 347 347 348 347 347 345 345 346 345 344 344 345 347 347 347 347 347 344 345 345 345 344 343 342 342 341 342
342 343 342 343 343 344 345 347 347 346 346 346 347 348 351 351 351 350 350 350 350 349 348 348 347 347 345 344 344 342 341 340 342 341 341 343 345 344 344 343 343 342 344 344 345 345 345 344 344 344 345 346 346 345 345 344 344 346 347 347 347 346 344 345 345 344 345 347 346 346 347 347 347 347 346 345 344 344 344 343 342 342 341 341 341
341 342 342 342 342 343 345 347 347 347 348 348 347 346 349 350 350 350 350 350 349 348 347 345 343 343 343 344 344 340 336 337 337 338 341 342 343 342 340 342 342 342 343 343 344 344 344 343 344 345 346 345 345 343 342 343 344 346 347 346 345 342 343 344 345 346 345 345 346 346 347 347 347 347 347 345 344 344 343 342 341 342 341 340 340
338 339 341 340 341 343 345 346 346 347 348 348 347 346 348 349 346 347 347 347 347 346 344 340 342 337 342 341 337 339 332 330 333 341 339 340 339 341 340 342 342 342 343 343 344 344 343 344 345 345 345 345 343 335 334 340 344 346 347 344 340 341 343 343 343 344 344 345 345 346 346 346 345 345 346 345 344 343 342 341 341 340 340 340 339
335 337 339 340 341 343 345 345 345 347 347 346 347 346 345 344 345 346 346 347 346 344 339 340 333 334 336 335 338 335 330 332 335 340 341 343 340 341 341 343 342 343 343 343 343 343 344 344 343 342 343 342 334 332 333 332 333 347 344 339 339 340 342 343 343 343 343 344 344 346 346 345 345 345 345 344 343 343 341 341 340 340 340 339 338
334 336 338 340 341 342 344 344 344 346 345 345 346 346 342 342 343 344 343 340 338 338 335 333 332 331 332 332 332 333 332 328 342 342 342 340 338 341 342 342 342 343 341 339 340 341 342 340 339 340 336 336 333 334 335 332 332 336 338 338 339 340 340 341 342 342 343 344 344 345 345 344 344 344 344 344 343 342 341 340 340 340 339 338 337
334 336 337 339 341 342 343 344 344 345 345 345 345 345 343 341 342 342 341 339 335 332 332 331 330 330 331 332 329 333 330 328 331 333 333 333 332 332 331 332 331 330 340 331 328 329 330 330 331 334 331 334 334 334 334 334 336 337 337 338 338 339 339 340 340 341 341 342 344 344 344 343 343 343 343 343 342 341 341 339 339 338 335 332 331
336 334 336 338 340 342 343 343 344 344 344 344 344 345 344 342 341 341 340 337 336 334 331 331 330 331 330 332 334 331 328 329 329 330 331 330 331 330 327 328 327 328 335 332 328 327 329 330 332 334 334 334 334 334 338 336 337 337 337 337 337 337 337 338 339 339 340 341 342 342 342 342 342 342 342 342 339 341 340 339 337 335 332 330 329
333 334 336 337 340 341 343 343 343 343 344 345 344 344 343 342 342 341 339 337 336 333 331 330 330 331 332 335 333 330 328 327 328 328 329 329 330 329 329 328 328 329 332 332 332 332 332 333 333 333 331 334 334 335 335 336 337 337 337 336 336 336 335 336 336 336 337 338 339 340 339 339 340 341 343 343 342 340 338 336 334 332 330 329 328
332 333 335 337 338 340 342 343 343 343 343 344 344 343 342 341 341 342 340 339 337 335 333 331 332 332 334 335 336 331 330 328 329 329 329 329 330 330 331 332 333 331 332 335 335 332 335 336 336 335 334 333 335 335 335 336 337 337 335 335 335 334 333 333 332 332 333 334 336 337 337 337 337 338 338 339 339 337 336 333 331 330 329 328 328
331 332 334 335 337 340 342 342 342 343 343 343 342 342 342 341 341 340 338 340 335 335 333 331 331 333 334 336 338 334 335 330 329 330 330 330 330 331 332 332 332 332 334 336 335 332 333 334 335 335 332 332 333 334 335 335 336 336 335 334 333 332 331 331 330 329 329 330 332 333 334 333 333 335 336 337 335 333 333 332 331 330 329 327 326
331 332 333 334 337 339 340 341 341 342 343 342 342 341 341 340 340 340 338 338 334 333 330 329 330 332 332 335 337 336 335 334 332 331 332 331 331 333 333 332 332 334 335 335 333 332 332 331 332 333 332 331 333 337 335 335 336 335 334 333 332 331 330 328 326 325 325 326 328 329 330 329 329 331 332 332 332 331 331 331 330 329 329 328 326
331 331 333 334 337 338 340 341 341 343 343 342 341 341 341 340 339 339 337 336 334 332 330 329 330 332 333 334 336 338 336 335 334 332 333 332 332 333 333 333 334 334 333 333 334 334 332 332 332 333 331 330 332 335 333 334 335 334 334 332 330 330 328 326 324 322 321 322 323 326 326 327 327 327 328 329 330 330 330 329 328 327 327 327 326
329 330 332 334 336 338 339 341 342 342 342 342 342 340 340 340 339 338 336 335 333 331 329 329 333 331 334 334 336 337 339 335 334 333 334 332 332 333 332 332 332 334 334 334 336 334 334 334 334 333 333 331 327 327 329 333 334 334 332 330 329 327 325 323 321 320 319 320 320 321 324 325 326 325 325 327 328 329 328 328 327 326 325 325 325
330 330 332 333 335 337 339 341 342 342 342 342 341 340 340 340 339 337 336 336 333 330 328 328 329 332 334 335 336 337 338 336 334 335 337 333 332 331 330 331 332 334 334 335 335 334 333 333 333 332 329 325 324 324 326 331 333 332 331 329 327 324 323 321 320 320 319 319 319 319 320 323 324 323 323 323 325 326 327 327 326 326 324 323 322
329 330 331 331 335 337 340 341 341 341 342 342 341 340 340 339 339 336 337 335 332 330 330 328 330 332 334 336 336 337 338 336 335 334 335 333 331 331 331 331 332 334 334 334 332 331 331 331 332 330 329 323 321 322 326 329 332 331 330 328 326 324 322 320 320 320 319 318 318 318 317 318 318 321 322 322 323 323 324 324 324 324 323 322 321
330 330 330 331 334 336 339 340 341 341 341 341 341 340 340 339 338 336 335 335 333 331 330 329 330 333 335 336 336 337 337 335 335 334 333 332 331 330 331 332 332 333 333 332 331 330 330 330 330 325 322 321 321 324 324 328 330 329 328 327 325 323 322 320 320 319 318 317 317 316 316 316 316 317 318 319 323 321 320 320 321 320 320 320 321
330 330 330 331 333 335 338 339 341 341 341 341 341 340 339 338 338 339 336 335 334 331 330 330 331 334 336 335 336 337 337 335 335 334 333 332 331 330 331 332 333 332 332 331 330 329 329 329 329 323 319 319 319 318 322 324 326 326 326 325 324 323 320 320 319 318 317 317 316 315 315 316 317 321 321 317 319 321 320 319 319 320 319 319 319
332 331 330 331 332 334 338 337 339 340 341 341 341 340 338 337 336 338 336 335 334 332 331 331 333 334 335 335 336 338 336 335 335 334 333 332 331 331 332 332 332 331 331 330 329 329 329 329 328 326 320 317 317 317 318 320 320 321 321 321 322 321 319 319 318 317 316 314 314 314 316 319 323 322 314 316 316 318 318 318 318 319 318 317 317
333 332 331 331 332 334 336 337 339 341 341 341 340 339 338 337 336 336 338 335 334 334 332 333 333 335 336 335 336 338 337 335 335 334 333 333 332 332 332 332 332 330 330 330 329 328 328 327 324 321 319 317 316 317 315 316 317 316 316 315 315 315 315 316 318 319 314 313 313 314 315 316 314 313 314 314 313 313 314 318 319 318 317 315 314
333 332 331 332 332 334 336 337 339 340 340 340 340 339 338 336 336 335 335 334 333 333 333 333 334 335 336 336 337 338 338 335 334 334 332 334 332 332 332 332 332 330 329 328 328 329 327 325 323 319 318 317 316 316 314 314 313 313 312 312 313 313 314 316 315 313 313 313 314 314 310 311 311 311 313 312 311 310 310 310 310 311 315 313 312
332 332 331 331 332 333 335 337 338 339 340 339 339 338 336 335 333 332 332 333 332 332 332 334 335 335 336 337 337 337 337 336 335 334 333 333 332 332 331 332 331 329 328 328 327 328 326 323 320 317 316 316 315 314 314 313 311 311 312 310 311 311 311 312 311 311 313 313 314 311 309 307 309 310 311 310 308 308 308 309 315 309 313 316 312
332 331 331 330 332 333 334 335 338 339 339 338 338 337 335 334 333 332 332 332 331 331 332 333 334 336 337 337 337 338 337 337 337 335 332 335 332 332 331 332 331 329 328 329 328 327 326 324 321 319 315 313 313 314 313 312 309 307 308 308 308 312 314 310 309 309 310 310 310 308 310 308 307 310 309 308 307 307 309 309 309 308 310 308 310
331 331 330 330 331 334 334 335 337 338 338 338 338 337 336 335 334 333 332 331 331 331 331 332 334 335 336 337 337 337 337 337 337 335 333 333 331 331 331 331 330 328 328 328 327 329 325 322 319 317 318 314 312 313 312 311 310 305 304 305 308 309 313 308 308 308 308 308 308 308 308 306 307 307 307 306 306 306 306 307 309 308 307 307 309
331 330 330 330 331 333 334 335 336 337 338 338 338 337 336 336 335 331 333 329 331 333 333 334 335 334 335 336 336 336 336 336 336 335 333 332 331 331 330 330 329 328 326 325 327 325 323 321 319 317 315 318 316 314 313 314 311 309 309 306 303 303 307 308 308 307 308 308 307 306 307 305 306 306 307 306 306 306 306 306 307 306 307 307 307
331 330 330 329 330 332 334 335 336 337 337 338 338 337 337 334 333 333 333 332 330 333 332 333 334 334 334 336 335 334 334 335 336 335 333 332 331 331 329 328 327 327 325 325 324 323 322 321 320 319 317 314 313 313 316 315 311 310 308 308 305 304 302 303 303 305 306 306 307 307 307 305 306 305 306 304 305 306 306 306 306 306 307 307 307
330 330 330 329 330 331 333 335 335 336 337 338 338 337 336 333 332 331 332 331 332 332 331 331 333 334 334 334 334 333 333 333 334 334 333 330 329 329 328 327 326 326 325 325 324 323 323 322 321 319 317 316 313 313 315 316 314 318 312 306 306 305 305 305 301 303 306 305 304 306 312 306 305 306 306 304 303 304 305 305 306 306 307 306 306
330 331 331 331 330 331 333 334 335 336 336 337 338 337 335 333 330 329 328 329 328 328 329 329 330 332 333 334 334 333 331 332 332 332 332 330 328 326 327 326 325 324 325 324 324 322 322 321 321 320 318 319 316 312 312 318 316 318 314 313 313 310 306 306 304 301 306 308 307 309 307 304 307 307 303 302 303 303 310 307 307 307 305 305 306
331 332 332 331 330 331 333 334 335 335 336 337 337 336 334 334 332 332 331 330 329 329 329 331 332 334 335 333 332 331 330 330 330 330 329 329 327 325 325 325 324 323 325 323 322 322 321 322 322 320 319 319 317 313 313 313 316 315 314 314 315 312 310 305 304 299 299 304 304 303 305 304 306 306 303 303 305 305 304 310 305 306 306 306 306
332 332 331 331 329 330 332 333 334 335 336 336 336 336 335 333 332 332 332 331 330 329 329 330 332 334 333 332 330 329 329 329 328 327 327 327 325 323 323 323 323 322 324 322 322 321 320 320 322 321 320 320 318 317 314 314 316 314 313 312 310 309 307 306 306 308 302 300 300 302 302 303 305 303 305 305 306 305 305 305 309 306 306 304 304
332 331 331 331 330 330 331 333 334 335 335 336 336 335 336 334 333 332 331 332 331 329 330 330 331 332 331 330 329 328 328 327 327 326 326 326 327 323 322 322 322 322 324 320 320 319 319 319 318 317 319 319 318 318 316 314 316 312 309 306 306 306 305 306 305 305 304 300 299 299 302 302 303 303 304 303 303 305 306 306 309 305 307 305 303
332 332 331 331 330 329 330 332 333 334 335 335 335 335 335 334 332 332 331 329 329 329 329 329 329 330 329 328 328 326 326 325 324 324 324 324 325 323 321 321 321 321 322 318 317 316 316 316 317 317 318 318 317 318 317 315 316 314 314 309 307 306 306 306 305 302 302 304 304 299 300 300 299 302 303 303 303 304 304 304 303 302 303 303 303
332 331 330 330 329 329 329 330 332 334 335 335 335 334 334 334 333 332 331 329 328 328 328 327 328 328 328 326 326 325 325 325 323 322 323 323 322 323 321 320 320 323 320 315 315 315 314 314 313 314 315 316 314 315 315 313 314 312 310 310 311 309 308 307 305 304 305 301 301 300 300 299 297 299 304 305 305 302 302 303 303 302 303 303 303
Wind_Speed
10 12 9 13 14 16 16 16 15 15 16 16 17 17 17 17 16 15 15 15 15 15 15 14 14 13 13 12 12 13 13 13 12 11 10 13 12 11 11 13 13 12 12 12 12 12 12 13 14 14 15 15 15 14 14 13 13 12 12 11 11 11 11 11 11 11 10 10 11 10 10 10 11 11 12 12 12 11 11 11 10 7 5 9 12
14 10 8 10 15 16 16 16 16 15 16 16 16 17 17 16 16 16 15 15 15 15 15 14 13 13 13 12 11 12 12 13 12 12 10 13 12 12 11 13 12 12 12 12 12 12 12 13 13 14 14 14 14 14 13 12 11 11 10 10 10 11 10 11 10 10 10 10 10 10 10 10 11 11 12 11 11 11 10 11 10 5 5 11 12
12 9 8 10 17 16 16 16 15 16 16 16 17 16 16 16 15 15 15 14 14 15 15 15 14 14 13 13 12 12 12 13 13 12 11 13 13 11 12 12 12 12 12 12 12 12 12 12 13 13 14 14 14 13 12 11 9 8 8 8 8 8 10 10 9 9 10 10 10 10 11 11 11 12 12 11 11 10 10 10 11 10 8 11 11
12 10 8 12 17 15 16 16 15 15 15 15 16 16 16 16 15 15 15 14 14 14 15 15 15 15 14 15 13 12 13 13 13 12 11 13 13 12 12 12 12 12 12 12 12 12 12 12 12 13 13 13 13 12 10 9 8 6 6 5 5 5 6 9 9 9 8 9 9 6 3 4 7 11 11 11 12 11 11 11 11 12 12 12 12
12 10 9 9 11 13 15 16 15 15 15 15 15 15 16 16 15 15 15 14 14 14 14 14 14 15 15 15 15 14 12 12 12 12 11 9 9 11 12 12 12 12 12 13 13 12 12 12 12 13 13 13 12 10 9 8 7 7 5 4 3 3 5 6 8 10 10 10 7 4 3 4 4 10 10 11 11 11 11 12 12 12 12 12 12
12 9 9 8 9 11 16 14 16 16 15 15 15 15 16 15 14 15 14 14 13 13 14 14 15 14 15 15 14 15 13 11 11 12 10 7 10 12 13 12 12 12 12 13 12 12 12 11 12 12 12 12 11 10 9 8 7 6 4 3 2 0 3 6 7 9 10 10 6 3 3 3 3 6 10 10 10 10 11 11 11 11 11 12 12
12 9 8 9 8 10 16 16 17 16 16 15 15 15 16 16 15 15 14 15 14 13 13 13 14 14 14 15 14 13 14 13 13 11 8 4 11 13 13 13 13 12 12 12 12 11 11 11 11 12 11 11 10 9 8 8 7 6 5 4 3 2 2 7 10 11 11 6 3 3 3 3 3 4 10 9 10 10 11 11 10 10 10 11 11
9 8 8 8 8 12 16 15 17 17 16 16 15 15 15 15 14 14 13 14 14 13 12 12 13 14 14 14 14 13 12 10 9 7 5 5 7 13 13 13 13 12 12 12 11 11 10 11 11 11 11 11 10 10 9 8 8 7 7 6 5 3 3 8 11 12 10 4 4 3 3 3 3 4 8 9 10 10 10 10 10 9 9 10 9
9 9 9 9 9 15 14 14 16 17 17 16 15 15 15 15 14 13 13 14 13 13 12 12 13 13 14 14 13 13 11 8 7 6 5 3 10 10 13 13 12 12 11 11 10 9 9 10 11 11 11 11 11 10 10 9 8 8 9 8 7 6 8 10 12 13 6 4 5 3 4 3 3 4 8 9 10 10 10 9 8 9 10 9 9
8 8 9 8 8 18 14 13 14 17 17 16 15 15 16 15 14 14 13 13 13 13 12 12 12 12 13 14 13 12 10 8 7 6 8 10 12 14 13 12 12 12 11 10 9 9 9 10 10 10 11 11 10 10 10 9 9 9 10 10 9 9 11 13 13 10 6 5 5 5 4 5 3 3 7 9 10 10 9 9 7 7 7 9 9
8 8 8 8 9 16 15 13 14 16 16 15 15 15 16 15 14 13 12 13 13 12 12 12 12 12 12 13 13 12 10 8 7 8 10 12 15 16 15 12 11 11 10 9 9 8 9 9 10 10 11 11 10 10 10 10 10 11 11 11 11 10 11 11 9 5 5 6 5 4 7 7 3 3 8 9 10 9 9 9 8 8 7 8 8
10 8 8 7 13 16 15 14 14 15 16 16 15 15 14 15 14 13 12 13 13 12 12 12 12 11 11 12 11 11 10 9 9 10 11 12 13 14 14 12 11 10 10 9 8 8 8 8 9 10 11 10 10 10 10 10 10 11 11 11 10 11 11 11 6 5 5 5 4 4 5 3 2 5 9 8 10 9 8 7 7 7 7 7 7
11 10 8 7 8 15 15 15 16 16 16 16 15 15 15 15 14 13 12 12 12 11 12 12 12 10 9 10 10 10 10 10 10 11 11 12 13 13 13 12 11 10 10 8 7 7 8 8 9 10 10 10 10 10 10 10 10 11 11 10 10 11 11 10 6 5 4 4 4 5 4 2 1 7 7 8 10 9 8 7 8 8 8 8 8
13 10 9 7 7 16 17 14 14 16 15 15 15 14 14 14 14 13 12 11 11 10 11 12 12 11 9 8 8 9 9 9 10 10 11 11 11 11 12 11 10 10 9 8 7 7 7 8 9 10 10 10 9 9 10 10 11 11 11 10 10 10 11 8 7 5 5 5 4 4 3 2 1 8 5 8 8 8 8 8 8 9 10 9 10
12 12 10 8 8 9 18 15 15 14 13 13 13 12 12 12 12 11 11 11 11 10 12 12 12 11 10 9 8 8 9 9 10 11 11 11 10 9 10 10 10 9 8 7 7 7 7 8 9 10 10 10 9 9 10 10 10 11 11 10 11 11 10 6 5 5 4 4 3 4 3 2 5 7 6 8 7 7 7 8 10 9 9 10 11
10 12 10 8 8 8 9 15 16 13 12 13 12 12 12 11 12 12 12 11 11 11 12 11 11 11 10 9 8 8 8 9 10 10 10 10 9 8 8 9 9 8 7 7 6 6 7 8 9 9 9 9 9 9 9 10 10 10 11 11 11 11 10 6 4 4 4 4 3 3 3 2 5 6 6 7 8 7 8 10 9 11 11 12 13
10 10 9 9 8 7 8 9 11 16 13 14 12 13 12 12 12 13 12 12 12 11 11 11 11 11 10 9 7 7 8 9 9 10 10 10 8 7 8 8 8 7 6 6 6 6 7 8 9 9 9 9 9 8 9 9 10 9 10 11 11 11 10 7 5 4 4 5 3 3 3 3 5 6 8 7 8 10 10 11 12 13 14 14 15
11 10 9 7 8 7 7 7 9 9 8 11 14 14 13 12 12 13 13 12 12 11 11 10 11 10 9 9 8 7 7 8 9 9 9 9 8 8 7 7 7 6 6 5 5 6 7 7 8 8 8 8 8 8 9 9 8 8 10 11 11 12 11 10 7 6 6 5 4 2 2 4 4 5 8 9 10 11 11 14 16 16 16 16 16
9 9 8 7 7 6 6 6 7 6 7 5 5 10 15 14 14 14 13 12 11 11 10 10 10 9 9 8 8 8 7 8 9 9 9 11 9 8 7 5 5 5 4 5 5 6 6 7 7 7 7 8 8 8 8 8 7 7 10 11 12 12 13 8 7 6 5 4 3 2 3 4 5 8 11 10 12 14 15 16 16 16 16 16 16
8 8 7 6 6 6 6 6 6 6 6 4 4 5 11 15 14 14 14 13 12 11 10 9 8 8 8 8 8 5 6 5 10 7 9 10 10 5 5 5 6 3 3 3 5 5 6 6 6 6 6 7 7 7 7 7 6 6 10 11 11 12 7 6 7 6 5 5 4 3 6 7 10 10 12 13 15 15 16 15 16 16 16 16 15
5 7 7 7 6 6 7 7 8 8 7 6 4 4 7 13 12 13 14 13 12 11 10 8 6 7 6 6 6 3 1 2 3 2 7 3 5 6 2 7 4 3 1 3 4 5 5 5 5 5 6 6 6 7 6 6 5 6 10 12 12 7 6 7 7 6 6 4 4 6 10 10 10 13 14 15 15 15 15 14 15 16 15 15 16
9 8 7 6 7 6 8 8 7 9 8 6 4 4 4 9 5 6 6 9 9 8 5 2 5 1 6 4 2 2 2 2 1 6 1 3 4 5 3 4 4 2 1 3 4 4 4 4 5 6 6 6 7 3 3 4 6 8 10 11 7 6 6 6 6 6 6 6 6 7 12 11 12 13 14 15 15 15 14 14 15 15 16 16 16
9 8 7 8 6 6 7 8 8 8 9 7 5 4 4 4 5 5 5 8 6 5 3 2 2 3 1 2 1 1 2 1 1 2 3 5 3 6 5 3 3 2 0 1 2 4 3 4 6 7 7 6 3 3 3 3 3 10 10 7 6 6 7 7 7 7 7 6 6 11 12 12 13 14 14 14 14 14 14 15 15 16 16 16 16
10 9 9 7 8 8 8 8 9 9 9 6 5 5 3 4 4 4 4 4 4 5 4 3 3 2 2 2 2 2 2 2 3 8 6 3 4 5 5 3 2 1 2 4 4 4 5 5 5 6 5 3 3 3 3 3 4 5 6 6 6 6 7 6 6 6 7 7 7 13 12 13 13 13 13 13 13 12 13 14 17 17 16 16 16
9 8 8 9 10 9 8 8 8 8 9 7 7 6 4 5 4 4 3 3 3 4 5 4 3 3 3 2 2 2 3 2 0 2 3 4 3 2 2 3 2 3 4 2 1 2 2 3 4 4 4 3 4 4 3 5 6 7 6 6 6 7 6 6 6 6 7 6 7 13 13 12 13 12 12 12 12 12 14 14 16 16 15 15 16
7 8 10 10 11 9 9 8 8 8 8 7 7 7 6 5 5 5 4 3 3 4 4 4 4 4 4 3 2 2 2 3 1 1 2 3 3 3 2 1 2 2 1 1 1 1 2 2 2 2 3 3 4 3 4 5 7 6 5 6 7 6 5 6 6 6 5 5 7 12 12 12 10 11 12 11 12 14 15 16 17 16 16 16 16
8 9 10 9 10 10 10 9 9 8 9 8 6 6 6 5 5 6 5 4 4 4 4 4 4 4 4 4 4 3 3 3 3 2 1 2 3 3 2 1 1 1 0 0 1 1 1 1 1 2 2 3 4 4 5 6 7 7 7 7 6 6 6 6 5 5 5 5 8 13 13 12 12 12 13 13 14 14 15 15 16 16 16 16 16
9 10 10 9 11 13 11 10 10 9 8 8 7 7 5 6 6 7 6 5 5 5 4 4 4 4 4 4 3 3 4 4 4 4 3 2 2 3 1 1 1 0 1 1 0 0 1 1 2 3 3 3 4 4 5 6 7 7 8 7 7 6 6 5 4 4 4 4 5 11 13 13 13 13 12 13 14 14 14 15 15 15 16 16 16
11 10 9 10 12 12 12 12 11 12 8 8 8 7 6 6 6 6 6 7 5 6 5 4 4 4 3 4 3 4 3 4 4 4 3 3 3 3 2 1 1 1 1 1 2 1 1 0 2 3 3 4 4 4 5 7 7 7 8 8 7 7 6 4 4 5 4 4 5 9 14 14 13 13 14 14 14 14 14 15 15 15 16 16 16
12 12 11 11 11 12 13 14 12 11 9 9 7 7 7 6 6 7 6 6 5 5 4 5 4 4 4 4 3 4 4 4 4 3 4 4 3 3 3 2 3 2 2 2 1 2 2 1 2 3 4 5 4 4 5 7 7 7 7 8 7 6 4 4 5 4 4 5 5 7 14 13 13 12 13 13 14 14 14 15 14 14 15 15 15
11 11 10 10 10 13 12 13 12 11 9 9 8 8 7 7 6 6 6 6 5 5 5 5 5 4 4 4 4 4 4 4 4 4 4 4 4 3 3 3 3 3 2 2 2 2 2 2 3 4 4 4 4 3 5 6 8 7 7 8 7 5 5 4 4 4 4 5 5 5 9 13 12 13 12 13 13 13 14 14 14 14 14 14 14
11 11 10 9 10 13 13 12 11 11 10 9 8 8 7 7 7 6 6 5 5 5 5 5 5 5 4 4 4 5 4 4 5 4 5 5 4 4 3 3 3 3 2 2 2 2 3 3 2 3 4 5 5 4 4 6 8 7 7 8 6 5 5 4 5 5 5 4 5 6 5 6 13 13 13 13 13 13 12 13 13 13 13 13 13
9 11 11 10 11 12 12 12 11 11 10 10 8 7 7 7 7 7 6 6 5 5 6 5 5 5 4 4 5 5 5 5 5 5 5 5 5 5 4 3 3 3 3 3 3 3 3 3 3 3 5 6 6 5 5 5 8 7 6 7 5 6 5 5 4 5 5 4 5 5 5 5 5 11 13 13 13 12 12 12 12 12 13 13 13
10 8 9 11 10 8 9 9 10 11 11 9 8 7 7 7 7 6 6 6 5 6 6 6 5 5 5 4 5 5 5 4 5 5 5 5 4 4 4 3 3 4 3 4 3 3 4 4 4 5 4 5 6 5 6 7 7 7 6 6 5 5 5 5 4 4 4 5 5 5 5 4 5 4 6 12 12 12 12 11 11 11 11 12 13
8 9 12 11 11 10 9 8 11 10 11 10 10 8 7 7 7 6 6 6 6 6 6 6 5 5 5 4 5 5 5 5 5 5 5 5 5 4 4 4 4 4 4 3 3 2 3 5 5 6 5 6 5 4 6 7 8 8 7 5 5 5 5 5 4 4 4 5 5 5 4 4 4 5 5 5 8 11 10 10 10 10 11 11 11
12 11 10 9 10 10 11 10 11 12 11 10 9 8 8 7 7 7 6 7 6 6 6 6 6 5 5 5 5 5 5 5 5 5 5 5 5 4 4 4 4 4 3 3 2 3 4 4 3 6 7 5 6 6 5 7 7 8 6 4 4 4 4 4 4 4 4 5 4 4 4 4 4 4 4 4 4 5 9 8 8 9 10 10 10
10 11 11 9 9 10 11 12 13 13 11 10 10 8 7 7 7 7 7 7 7 6 6 5 5 5 5 5 5 5 5 5 5 6 5 5 5 4 4 4 4 4 4 3 3 2 4 4 4 3 5 6 7 7 6 6 7 6 5 4 4 4 4 4 4 4 4 5 5 4 4 4 4 5 4 4 4 4 5 8 7 7 8 8 8
9 10 11 12 11 9 9 10 11 12 10 10 10 8 7 7 7 7 6 7 7 6 6 6 6 6 5 5 6 6 5 5 5 5 5 5 5 5 4 4 4 4 4 3 3 2 2 5 5 4 4 7 6 8 7 6 5 5 5 5 5 4 4 4 4 4 5 5 4 5 3 3 4 4 4 4 3 3 3 4 6 6 6 6 7
7 8 9 10 9 9 8 9 10 11 10 9 9 8 7 6 6 7 6 6 5 5 6 6 6 5 6 6 6 6 6 6 6 6 5 5 5 5 4 5 4 4 4 4 3 3 3 3 6 6 5 4 6 7 8 7 6 6 6 5 4 4 3 3 3 4 4 4 4 3 3 4 3 3 4 3 2 2 3 2 2 1 2 5 6
6 7 9 10 11 10 9 9 9 10 8 8 8 8 7 7 7 6 6 6 6 5 5 6 6 6 6 7 7 6 6 6 6 6 5 6 5 5 6 5 5 4 4 4 4 5 6 6 6 8 8 6 5 6 8 9 7 7 6 6 5 4 5 4 4 3 3 3 4 3 4 3 3 3 3 2 2 2 2 2 2 1 1 2 3
8 9 10 11 12 12 11 12 10 10 9 9 9 9 10 8 6 9 8 7 6 6 6 6 6 6 7 7 7 6 7 6 6 6 6 6 5 5 5 4 5 5 5 5 5 6 5 6 6 4 8 8 4 4 5 8 10 5 6 6 6 5 4 4 4 3 3 3 3 4 3 4 3 4 3 2 2 2 2 1 1 0 1 1 3
13 12 13 12 11 12 13 12 10 11 11 10 8 8 8 8 7 7 6 6 7 7 6 5 6 6 7 7 7 7 8 8 6 6 6 6 6 5 6 6 6 5 4 4 5 5 6 6 6 5 1 6 6 6 7 7 3 6 7 3 3 4 3 4 4 3 2 2 3 4 4 5 5 4 2 2 2 2 2 1 1 2 2 2 2
13 12 10 10 12 13 13 12 12 12 11 10 9 9 7 5 5 4 7 4 3 5 6 6 6 7 6 6 6 7 8 7 8 7 6 6 6 6 6 6 5 5 5 5 6 7 6 8 8 8 5 2 3 5 6 1 6 4 4 6 3 3 1 2 2 3 2 2 3 4 4 5 5 4 3 3 3 3 2 2 2 3 3 3 3
13 12 13 15 13 13 13 13 13 12 11 11 10 7 6 4 3 5 5 6 5 4 4 5 5 6 6 6 5 6 7 7 9 8 6 6 7 7 6 6 6 5 6 7 6 7 6 6 6 6 8 6 4 7 4 2 5 10 4 1 4 4 3 5 3 1 1 2 4 4 4 5 4 3 3 4 4 3 3 2 3 3 3 3 2
14 16 15 15 13 16 14 14 12 13 12 12 11 8 7 5 4 4 4 4 4 5 5 5 6 7 6 6 6 6 7 7 7 7 7 7 6 6 6 6 6 6 5 6 7 7 7 7 7 7 8 8 7 5 5 2 5 1 7 5 2 2 4 2 4 1 1 3 2 2 3 3 4 5 4 4 3 3 3 3 2 2 3 3 3
14 16 16 16 12 11 13 12 11 11 12 12 11 10 10 10 8 8 9 8 8 9 11 11 9 8 7 6 6 6 6 6 6 7 6 6 6 6 6 7 6 6 6 6 6 5 6 7 7 8 8 5 9 6 6 3 3 2 1 1 4 2 5 2 3 3 1 0 1 1 1 2 2 4 3 4 3 2 1 2 2 3 3 3 3
17 15 13 13 14 12 13 13 12 11 11 11 12 10 10 10 12 12 10 11 10 6 4 7 8 7 7 8 6 6 6 7 6 6 6 6 6 6 6 6 6 6 5 5 6 7 7 7 6 6 7 6 5 7 8 7 2 1 1 3 2 1 7 7 4 3 2 2 2 2 2 2 2 3 4 4 3 1 3 2 2 2 3 3 3
18 14 14 13 16 16 15 15 12 11 11 11 13 12 12 11 11 12 11 11 10 8 7 7 6 7 8 8 6 6 6 6 7 6 7 7 6 6 6 6 6 6 6 6 7 6 5 4 6 7 5 6 7 8 8 6 8 4 2 2 4 4 3 2 6 6 5 5 4 1 3 2 1 2 2 1 1 3 2 2 3 4 3 4 3
14 14 15 16 16 14 14 13 13 12 12 14 13 14 13 13 12 11 10 8 7 7 7 7 8 7 8 6 7 7 6 6 7 8 7 7 6 7 6 6 6 6 5 5 5 6 7 7 6 6 7 6 6 5 6 7 6 6 5 2 4 3 3 3 3 3 4 4 1 4 4 1 1 2 0 2 2 2 1 2 3 3 4 4 5
12 12 12 9 10 11 13 15 15 13 12 14 14 15 14 12 12 13 13 8 6 7 8 8 8 8 8 8 7 7 6 6 5 6 7 7 7 6 7 7 6 6 5 5 5 5 5 5 6 7 7 7 5 6 7 6 7 6 6 7 5 3 3 3 2 3 4 2 5 6 6 7 6 3 3 3 3 3 4 4 5 4 4 4 4
10 11 11 11 11 12 14 16 16 12 13 15 15 16 14 13 13 13 13 11 10 10 9 8 8 8 8 8 8 7 6 7 6 6 6 7 6 6 6 6 5 5 5 5 6 6 6 5 5 4 6 7 6 6 4 5 6 6 6 7 7 8 7 6 6 5 5 3 3 1 2 4 5 4 4 1 4 5 4 4 5 5 4 4 4
Wind_Direction
171 160 163 162 160 155 154 154 151 148 140 139 139 137 137 134 127 126 127 125 123 121 119 120 120 120 122 128 133 135 133 128 125 122 125 115 116 117 118 115 110 108 109 112 100 95 97 98 97 97 94 91 89 87 85 83 83 83 82 82 87 89 90 86 86 86 87 92 94 94 98 97 91 92 89 85 83 80 77 73 65 51 46 63 62
161 161 157 159 160 154 154 155 152 148 142 141 142 139 139 133 129 130 129 127 124 121 120 120 120 120 120 124 131 135 135 134 130 128 131 121 119 122 125 113 109 108 106 109 106 102 101 98 97 96 94 91 89 88 86 84 83 83 84 86 89 93 91 90 89 89 86 88 93 95 94 94 96 96 94 93 92 90 85 78 72 59 66 64 63
150 154 157 161 159 155 155 155 152 148 144 144 144 142 140 135 131 131 131 128 126 124 123 123 123 123 121 122 130 137 139 138 134 136 134 127 124 126 117 112 110 110 113 112 108 104 100 97 94 92 89 88 87 85 83 82 82 86 96 102 99 98 103 100 96 99 99 99 97 94 95 96 97 99 98 96 95 95 92 87 79 72 71 67 63
150 152 157 162 157 155 155 154 153 148 145 147 145 144 142 137 133 133 130 129 128 127 127 125 124 124 123 124 130 138 141 140 139 135 137 136 134 131 118 114 114 113 114 113 110 105 99 95 93 91 89 85 82 78 77 80 79 77 78 85 94 109 121 118 109 103 103 99 80 64 53 59 91 98 100 98 96 94 93 89 82 76 74 73 68
150 153 157 161 154 156 154 154 153 149 148 150 149 146 145 138 136 135 133 131 130 130 128 126 125 124 124 125 130 135 139 141 137 132 138 135 119 119 116 115 110 115 116 112 109 104 97 93 92 89 88 85 80 79 76 73 71 64 55 58 81 124 137 141 130 116 111 110 91 65 66 85 87 103 105 101 97 92 90 86 81 75 69 70 70
153 157 157 152 152 156 155 154 153 151 151 152 151 149 148 140 138 138 136 134 133 132 130 128 127 126 125 124 128 135 139 140 138 141 148 129 128 128 123 119 118 119 115 113 108 100 96 90 88 86 83 82 81 74 69 63 57 52 42 29 15 67 159 158 154 140 123 118 98 79 73 77 86 106 109 110 107 98 91 88 85 78 72 68 66
150 157 154 149 153 156 155 155 154 153 154 154 153 154 150 142 140 142 141 137 134 133 131 130 129 128 127 127 128 133 137 141 145 152 154 138 135 136 126 119 121 120 118 114 106 98 93 88 86 82 80 78 72 67 62 56 47 38 27 18 7 337 158 167 162 150 136 110 91 84 66 67 73 85 114 114 112 103 93 91 89 84 80 77 73
151 156 152 149 152 159 155 157 156 156 156 155 156 156 153 144 144 148 145 139 137 137 134 132 131 130 130 129 130 130 129 133 139 145 144 147 147 130 124 127 123 120 119 115 106 95 87 86 82 80 77 70 65 58 51 46 41 30 24 22 18 55 119 153 156 151 130 120 110 93 76 66 81 90 113 112 106 100 96 95 94 92 89 85 79
157 156 151 148 156 156 155 158 157 159 158 156 158 158 154 147 148 151 148 141 138 140 137 134 133 132 132 134 134 133 129 130 135 136 139 144 181 137 125 127 125 123 115 103 94 85 80 82 79 76 71 63 58 53 48 41 39 32 30 29 31 62 102 135 147 140 122 121 111 98 90 82 78 96 106 103 100 96 92 86 86 87 87 88 84
156 153 152 151 158 156 155 159 159 161 160 157 159 158 155 149 149 154 150 146 144 142 144 141 134 133 131 135 137 135 129 124 124 124 108 104 118 121 120 118 121 116 111 109 102 89 80 77 75 71 66 60 57 52 47 40 33 32 35 38 43 81 105 124 127 124 115 114 110 109 116 104 62 68 109 107 104 100 97 91 83 74 73 78 80
152 155 150 153 160 153 154 160 163 163 161 158 161 160 156 153 149 155 154 148 142 146 151 143 135 134 133 134 138 135 128 126 116 110 113 107 109 111 116 119 117 118 114 112 97 84 76 72 70 67 64 62 58 53 47 39 31 29 30 35 54 90 101 109 106 101 110 114 115 125 121 110 96 137 118 107 101 94 86 82 83 83 79 70 64
153 154 153 158 162 154 156 162 165 166 162 161 162 161 158 154 151 156 156 149 147 149 152 142 137 137 137 135 134 131 128 124 114 116 111 109 113 118 121 121 118 113 110 103 90 82 74 69 66 64 64 62 58 52 47 39 31 28 28 37 57 94 102 101 96 104 105 107 106 93 89 96 52 113 104 108 101 93 87 82 79 81 77 74 73
156 156 155 162 159 157 157 164 167 166 164 163 163 163 159 156 153 156 156 151 149 153 155 143 139 139 138 137 134 132 127 124 120 125 132 120 118 120 121 122 119 114 108 103 93 79 70 67 63 63 64 62 58 52 48 40 37 31 31 35 57 87 96 96 92 96 89 84 82 88 89 56 44 115 104 103 101 94 86 78 72 65 67 66 65
157 157 159 164 158 163 160 162 168 167 166 165 165 163 161 158 156 157 155 153 151 156 155 143 142 142 142 139 136 132 134 128 124 130 138 134 130 127 126 124 121 115 112 99 86 75 66 58 58 60 62 61 57 51 47 42 41 38 38 43 62 75 86 86 83 78 84 85 87 93 84 66 61 89 88 90 89 91 85 78 75 64 55 53 56
157 158 162 160 162 164 162 167 169 166 166 164 164 163 162 159 156 152 152 155 155 156 155 146 145 143 143 142 141 140 140 141 135 135 135 136 137 136 133 129 124 119 109 94 86 71 62 55 57 61 61 60 55 49 47 44 44 43 45 58 72 73 76 69 68 67 77 77 74 79 67 29 85 98 97 99 94 87 83 72 73 71 67 65 63
161 156 158 155 159 164 159 170 167 165 163 163 163 163 161 158 154 152 155 157 159 159 157 149 149 146 143 144 145 146 147 148 151 145 141 142 143 142 139 135 128 122 108 97 84 70 58 54 57 61 61 58 55 48 47 46 46 48 56 70 77 82 85 88 83 81 78 78 73 67 55 54 93 101 100 88 93 89 77 77 68 73 73 68 67
160 160 156 158 158 162 161 166 164 165 162 164 166 164 160 158 155 155 157 158 161 160 159 157 155 153 149 152 154 152 152 152 151 160 162 144 145 149 149 141 133 120 107 97 81 68 59 56 56 57 55 55 53 46 45 46 46 51 66 75 80 80 80 81 79 69 71 72 72 56 46 57 86 95 85 80 64 62 56 82 81 76 74 75 74
161 161 157 160 159 157 159 158 161 161 163 165 170 168 163 156 156 158 157 158 159 161 163 161 161 160 157 159 162 164 156 156 158 159 159 153 157 157 157 153 134 119 108 92 75 64 58 54 52 50 49 49 48 45 43 45 45 50 76 81 84 86 84 81 77 73 76 71 66 56 17 85 91 89 85 82 76 77 82 80 80 82 80 77 74
159 165 158 160 162 155 153 154 153 150 156 156 171 173 170 161 161 160 159 159 160 163 167 171 167 166 166 168 172 170 164 162 166 165 164 156 160 164 160 162 152 130 95 84 69 60 54 51 47 43 44 47 44 44 43 45 45 60 90 89 88 88 86 82 81 82 76 70 62 54 49 75 89 86 83 81 83 87 86 84 87 83 80 77 74
158 161 164 166 160 155 151 150 150 151 151 156 170 178 173 167 165 163 162 162 163 164 170 170 172 172 176 180 179 179 173 167 168 171 169 162 152 107 148 172 131 140 96 75 64 55 47 42 37 34 35 44 41 43 41 42 45 77 101 98 93 88 81 81 79 67 67 71 71 48 84 84 91 92 91 92 92 88 87 89 88 84 79 73 69
163 166 172 170 161 160 159 154 157 157 157 160 168 174 181 171 168 166 166 165 163 166 168 179 185 191 183 190 188 146 135 169 164 158 177 139 116 125 131 171 132 138 104 60 56 50 39 26 22 24 29 35 35 41 30 28 46 95 108 102 99 87 82 82 79 70 62 55 60 77 81 86 94 96 97 95 93 92 91 86 82 78 75 73 69
172 170 179 174 168 171 168 162 162 165 161 162 164 172 189 168 158 165 160 164 163 167 176 153 188 99 197 191 131 147 122 125 121 165 77 132 151 150 145 131 121 93 66 43 41 38 24 14 12 16 23 25 29 33 37 15 24 114 107 99 94 91 90 90 85 81 71 71 78 85 85 86 94 93 94 95 92 91 89 85 80 78 76 73 70
178 175 177 179 181 175 172 169 171 167 163 166 166 170 176 141 156 153 158 159 160 156 107 136 68 137 47 101 132 104 134 135 147 139 116 128 146 171 170 154 165 173 111 1 19 16 13 7 11 10 22 34 30 35 48 54 33 108 92 89 95 99 96 90 87 84 77 76 79 85 88 91 89 90 91 91 92 89 87 84 81 76 72 71 70
181 180 174 178 185 181 178 176 175 171 169 168 169 166 155 148 149 140 140 129 111 109 123 102 117 116 107 106 130 144 123 149 196 178 168 139 161 175 177 183 168 93 60 38 28 22 4 3 12 32 36 42 27 27 54 70 90 96 99 98 101 98 92 83 84 83 81 74 76 78 81 83 85 85 84 83 87 91 88 86 83 77 74 72 70
180 172 173 182 185 179 178 179 179 174 171 169 173 171 153 149 146 135 126 122 108 110 122 122 137 139 122 136 149 157 130 134 32 26 82 124 121 84 38 47 68 72 52 21 17 335 356 354 17 36 46 50 37 24 56 90 106 109 108 109 107 105 93 88 88 85 79 77 77 75 78 79 79 79 78 75 77 84 84 82 83 81 78 73 70
177 180 186 183 184 180 181 177 178 179 177 172 173 173 161 161 151 146 137 123 123 133 136 146 144 154 142 143 157 146 142 132 116 93 74 114 136 123 81 70 66 94 59 25 339 348 332 4 41 37 44 62 67 54 76 111 116 115 110 108 109 103 94 93 91 84 76 72 73 75 75 76 77 78 75 78 85 84 87 84 79 77 76 75 72
187 192 186 187 182 182 184 178 179 179 182 175 169 177 166 163 154 150 157 152 153 143 161 158 155 157 146 151 151 157 150 144 162 183 134 129 145 161 153 78 92 92 129 134 329 336 342 358 59 68 71 76 80 72 95 105 118 119 116 112 109 104 96 95 88 80 69 62 80 78 77 75 75 79 84 85 88 87 81 81 80 78 78 77 74
193 189 187 183 186 185 184 181 181 179 181 177 171 181 162 160 166 174 174 172 168 177 177 179 158 157 152 153 162 155 156 162 179 182 185 149 168 148 145 147 119 117 220 163 146 76 37 60 66 70 81 93 93 91 101 120 121 124 121 116 115 109 103 101 90 74 65 65 72 82 80 76 72 69 76 83 80 76 78 80 84 82 79 77 75
198 195 191 185 188 184 185 186 183 182 180 177 178 180 165 166 169 178 169 184 177 190 185 171 166 160 150 155 169 162 161 170 178 186 150 171 150 156 167 166 147 195 190 152 150 130 115 124 97 107 111 110 111 111 118 125 126 123 123 122 120 115 110 102 89 79 61 65 69 81 78 75 74 76 79 80 81 84 85 86 86 85 82 80 77
198 191 190 193 186 183 187 187 185 183 180 179 181 180 172 166 169 177 165 181 173 175 171 178 171 156 158 165 189 168 191 181 181 166 168 175 168 170 173 169 165 175 158 171 152 142 171 127 115 124 125 123 124 138 129 132 130 125 124 124 122 116 106 101 90 79 77 63 66 76 78 77 77 79 81 83 85 85 87 87 86 85 84 83 82
189 193 195 196 188 183 186 187 184 183 183 183 181 180 172 177 173 174 166 182 168 162 173 173 167 169 172 175 186 192 183 187 177 175 177 167 175 178 181 161 155 167 159 168 152 141 159 171 171 151 135 125 126 143 138 132 132 126 126 123 121 112 100 93 89 83 73 59 56 64 79 82 82 81 81 84 87 87 88 88 86 84 83 82 83
191 193 194 193 192 190 185 185 181 184 185 187 182 178 178 179 176 172 175 174 159 164 168 169 176 184 180 178 188 198 191 188 181 178 176 172 176 174 163 153 150 154 160 159 147 140 153 174 153 125 114 102 97 97 132 130 131 128 126 121 118 110 104 102 97 91 80 68 62 61 51 71 82 80 80 82 85 89 89 90 90 88 88 88 87
196 192 190 187 195 189 187 184 181 183 188 188 185 180 177 178 179 182 174 171 168 160 172 177 179 188 187 182 191 198 196 186 186 180 183 175 169 160 156 158 151 155 161 168 158 133 134 128 98 99 96 94 91 84 94 113 125 123 122 122 120 111 110 106 101 96 95 86 71 66 57 47 47 81 83 81 80 81 86 87 91 94 93 90 87
181 184 189 194 189 189 187 182 183 184 188 187 185 182 180 180 184 174 172 166 170 171 179 176 179 185 189 187 188 196 193 178 171 174 165 164 160 164 158 160 156 156 156 164 156 152 138 130 129 101 89 88 92 91 111 117 119 121 119 122 111 113 111 99 93 95 99 86 81 68 65 49 55 33 66 85 86 85 86 86 88 89 89 89 87
176 180 189 193 187 186 183 186 184 185 189 190 190 187 179 182 181 173 171 170 170 178 179 173 179 184 180 185 185 191 186 173 166 166 167 162 157 152 164 167 156 153 152 161 142 146 141 131 129 106 87 84 85 81 96 118 128 126 125 120 113 110 101 102 98 99 93 92 79 77 67 70 63 58 54 35 79 86 86 86 87 86 84 83 83
181 178 181 183 194 191 184 182 183 187 190 190 192 187 181 183 183 177 170 168 170 179 177 178 180 179 180 177 178 188 180 173 166 163 161 167 161 161 166 158 159 144 146 143 142 149 139 113 99 129 110 86 94 77 64 106 113 118 116 98 106 106 107 111 112 103 97 87 84 86 82 83 84 84 66 60 50 86 93 91 87 79 74 73 77
173 172 177 177 195 196 189 183 185 187 187 188 192 190 181 182 182 179 171 167 173 180 177 171 173 179 179 175 171 181 173 172 169 166 161 161 156 152 161 164 156 149 149 146 143 153 143 121 97 89 119 117 105 96 78 78 100 94 89 85 77 98 98 111 116 114 97 93 101 98 100 91 86 78 68 70 60 22 84 93 86 79 70 69 71
181 175 175 177 184 193 199 192 186 187 187 187 190 190 186 181 179 178 168 172 179 177 170 165 178 180 171 178 171 176 169 171 169 165 157 160 154 153 159 163 156 147 147 146 149 142 124 128 110 77 105 121 116 115 105 95 86 91 77 64 60 61 86 106 124 116 110 119 111 111 99 92 91 88 80 77 54 65 36 49 65 66 77 73 68
191 178 174 177 179 185 192 198 191 189 188 186 187 190 187 183 177 171 171 175 179 177 163 171 181 172 179 176 171 172 168 168 165 161 153 154 150 154 158 164 157 151 151 152 147 144 122 111 124 101 68 70 124 123 122 110 93 78 71 48 52 63 78 90 89 117 129 126 133 119 98 100 110 99 97 78 77 79 83 77 65 19 357 83 75
190 181 179 179 181 184 188 193 194 191 189 188 185 188 188 187 180 172 177 182 176 176 174 180 176 179 178 170 172 169 163 165 163 160 154 152 154 158 161 160 158 154 155 156 151 157 150 127 127 121 105 83 65 114 121 109 85 79 75 62 52 71 74 76 97 119 123 132 121 115 133 121 117 113 110 96 101 104 116 140 125 354 345 340 68
185 187 187 188 185 184 184 192 190 190 192 194 194 187 189 188 191 190 189 175 174 174 176 180 180 182 172 170 168 165 161 160 163 159 161 158 155 153 153 155 160 163 166 177 164 154 144 140 129 119 126 116 99 126 129 122 116 70 57 60 50 35 60 78 86 90 107 118 117 134 139 133 142 143 147 118 107 154 180 279 286 296 313 337 350
192 187 193 192 186 186 190 188 187 192 198 200 198 201 200 200 190 188 169 159 164 172 180 179 180 171 168 167 164 160 164 167 161 163 160 156 155 159 162 165 167 173 167 147 147 136 130 136 134 99 56 133 145 171 170 121 76 142 137 112 57 40 64 68 68 43 64 106 143 146 161 158 163 163 156 139 178 230 240 284 310 295 276 284 327
177 184 189 190 195 192 193 189 188 189 195 196 197 202 198 194 184 163 169 139 158 173 169 173 166 165 166 163 157 159 161 162 162 163 163 163 165 163 167 160 166 160 138 146 149 144 154 157 160 145 129 56 109 181 184 51 134 113 102 103 153 110 318 39 66 52 47 121 149 167 173 174 175 172 165 167 213 244 266 270 288 278 303 335 357
178 185 188 193 194 198 195 191 189 189 193 196 198 197 190 177 161 149 158 156 164 153 145 145 150 143 157 157 156 158 161 162 165 165 165 162 167 173 158 157 162 166 159 152 159 157 161 167 163 158 145 140 159 196 207 151 137 139 153 156 175 134 150 232 186 185 277 121 160 170 168 174 165 158 142 190 215 232 256 276 273 316 317 315 318
187 189 192 193 197 197 194 191 187 190 193 193 190 178 171 167 150 124 130 102 90 142 143 154 164 163 152 158 162 158 163 162 164 166 164 165 170 168 163 163 159 165 161 156 164 171 175 175 170 160 173 160 177 185 202 143 202 10 139 118 90 171 218 183 124 201 356 132 125 164 165 140 163 174 182 211 226 234 248 273 325 293 319 342 337
195 198 195 194 189 192 193 191 190 190 192 191 185 177 184 181 171 167 175 180 178 177 187 177 166 165 162 151 152 164 161 161 164 161 161 158 170 171 165 159 162 161 169 169 163 149 169 176 186 177 185 192 166 166 190 216 218 103 73 139 165 173 162 202 118 215 3 309 300 250 149 111 129 156 193 205 219 224 16 356 331 339 343 337 333
204 197 190 189 189 188 189 189 191 191 190 188 182 181 186 192 192 192 189 190 191 194 154 156 163 160 150 162 161 158 164 161 162 160 159 166 164 167 165 166 164 165 161 153 164 179 179 186 184 188 192 171 148 172 186 189 94 262 94 44 63 16 139 134 192 85 179 292 326 230 186 66 96 128 180 205 213 91 20 349 357 345 354 339 359
201 190 189 188 189 191 187 189 188 188 187 184 186 186 188 191 195 199 195 194 195 173 159 149 150 151 154 160 155 163 165 165 157 161 163 165 164 165 162 159 160 165 158 169 179 185 169 173 186 194 179 181 175 174 185 174 179 185 126 101 70 81 50 61 148 166 154 166 224 320 304 320 152 141 207 239 32 65 12 357 17 29 25 24 12
199 187 190 193 191 186 185 185 189 185 187 186 186 190 192 191 194 195 200 200 176 152 144 147 152 157 153 151 159 166 165 163 165 164 166 166 168 164 161 158 159 166 167 164 171 175 183 174 170 175 184 189 188 179 161 184 186 170 138 85 95 76 59 53 98 83 137 132 229 185 179 353 9 260 39 75 71 107 72 49 65 55 41 28 23
195 196 201 188 179 179 185 187 191 187 184 188 189 191 193 191 195 198 196 182 154 144 150 156 159 159 157 160 166 165 161 160 163 166 163 169 165 160 163 165 167 162 153 167 162 177 191 188 187 187 183 184 189 171 178 178 192 175 180 155 141 116 81 78 43 91 44 73 165 194 189 169 183 241 40 58 69 70 80 73 64 45 38 30 23
188 186 186 188 185 183 187 190 192 184 185 190 189 193 193 195 199 196 192 178 164 154 155 159 159 162 163 167 172 169 163 163 161 170 173 164 160 161 163 166 157 156 148 155 176 183 189 186 174 164 174 176 175 167 151 163 177 169 173 172 178 174 176 177 188 194 152 140 90 138 179 181 170 142 50 27 91 74 76 65 59 46 30 33 27